This is the latest recevied weather packets stored in our database for station/object s59zo-6. If no packets are shown the sender has not sent any weather packets the latest 10 day(s).
| Time | Temp. | Humidity | Pressure | Rain* | Wind** | Luminosity | Snow |
|---|---|---|---|---|---|---|---|
| 1788623405 | 26.67° C | 44% | 1018.7 hPa | 0 mm | - | - | - |
| 1788623104 | 27.22° C | 42% | 1018.8 hPa | 0 mm | - | - | - |
| 1788622805 | 27.78° C | 39% | 1018.6 hPa | 0 mm | - | - | - |
| 1788622505 | 27.78° C | 38% | 1018.5 hPa | 0 mm | - | - | - |
| 1788622206 | 28.33° C | 37% | 1018.3 hPa | 0 mm | - | - | - |
| 1788621905 | 28.33° C | 37% | 1018.3 hPa | 0 mm | - | - | - |
| 1788621605 | 28.33° C | 36% | 1018 hPa | 0 mm | - | - | - |
| 1788621304 | 28.33° C | 37% | 1018.2 hPa | 0 mm | - | - | - |
| 1788621005 | 28.33° C | 37% | 1018.1 hPa | 0 mm | - | - | - |
| 1788620712 | 28.33° C | 37% | 1018 hPa | 0 mm | - | - | - |
| 1788620405 | 28.33° C | 38% | 1017.9 hPa | 0 mm | - | - | - |
| 1788620104 | 28.33° C | 38% | 1017.9 hPa | 0 mm | - | - | - |
| 1788619805 | 28.33° C | 39% | 1017.9 hPa | 0 mm | - | - | - |
| 1788619505 | 28.33° C | 38% | 1017.8 hPa | 0 mm | - | - | - |
| 1788619205 | 28.33° C | 38% | 1017.7 hPa | 0 mm | - | - | - |
| 1788618904 | 28.33° C | 37% | 1017.6 hPa | 0 mm | - | - | - |
| 1788618605 | 28.33° C | 36% | 1017.7 hPa | 0 mm | - | - | - |
| 1788618305 | 28.33° C | 37% | 1017.7 hPa | 0 mm | - | - | - |
| 1788618004 | 28.89° C | 37% | 1017.9 hPa | 0 mm | - | - | - |
| 1788617704 | 28.33° C | 38% | 1017.8 hPa | 0 mm | - | - | - |
| 1788617405 | 28.33° C | 39% | 1017.8 hPa | 0 mm | - | - | - |
| 1788617105 | 29.44° C | 38% | 1017.9 hPa | 0 mm | - | - | - |
| 1788616805 | 29.44° C | 38% | 1017.7 hPa | 0 mm | - | - | - |
| 1788616504 | 30° C | 37% | 1017.7 hPa | 0 mm | - | - | - |
| 1788616205 | 30.56° C | 37% | 1017.7 hPa | 0 mm | - | - | - |
* Rain latest hour (hover to see other rain measurements)
** Current wind speed in m/s (hover to see current wind gust speed)